Wind_Speed
7 7 7 5 3 2 3 3 4 5 6 5 4 4 5 4 4 5 5 5 5 4 7 14 14 13 15 16 19 20 19 19 19 18 16 14 14 15 17 17 18 20 21 22 25 27 28 26 24 21 20 18 14 12 11 12 19 23 21 26 29 23 18 19 19 20 25 24 17 13 10 8 9 8 6 4 4 4 2 1 0 0 1 2 2
9 7 6 5 4 4 5 4 5 7 7 6 6 7 8 7 6 6 7 8 9 7 8 15 17 15 16 18 20 21 20 19 20 19 17 15 16 17 18 19 20 21 23 25 28 31 31 29 25 22 18 15 11 9 7 9 18 22 22 26 26 19 17 17 18 20 25 26 19 12 11 9 9 9 7 6 6 6 5 3 1 1 0 1 2
9 7 7 5 5 7 7 7 7 8 8 7 7 8 9 8 7 8 8 8 9 10 10 16 20 19 19 19 20 22 22 21 19 19 19 18 18 19 20 21 23 25 26 28 31 32 33 32 27 21 16 12 9 8 9 11 14 18 22 25 23 19 18 17 20 23 26 28 23 13 11 10 10 11 9 7 8 8 7 7 3 1 1 1 2
9 8 7 5 6 7 8 8 8 9 9 9 9 9 9 10 10 10 10 10 11 13 14 17 21 21 21 21 22 22 22 22 20 20 20 20 21 22 22 23 25 27 29 31 32 33 34 32 27 21 16 13 10 9 12 14 15 19 23 24 22 22 22 20 23 27 28 30 25 14 12 11 9 12 11 8 9 10 10 9 6 2 1 0 1
10 9 8 6 7 7 7 8 8 10 12 11 10 11 11 12 13 12 13 14 15 16 17 18 21 22 22 23 23 22 22 23 22 22 23 23 24 25 25 25 26 28 30 33 34 34 33 30 27 21 15 12 8 9 16 19 20 23 24 24 23 23 24 24 27 30 31 32 25 15 12 12 10 10 13 11 9 11 12 11 9 5 2 1 0
12 11 9 7 7 7 6 7 10 13 15 14 13 12 13 14 14 15 17 18 18 18 17 18 20 22 24 25 25 24 24 24 24 25 25 26 27 28 28 28 28 29 31 33 35 34 31 27 25 20 16 13 10 14 24 26 25 25 21 21 22 22 23 26 29 33 35 32 23 15 12 13 12 9 13 15 12 11 13 13 11 9 4 2 1
14 13 12 10 9 9 8 11 14 16 16 16 16 15 14 15 17 19 20 21 20 20 20 21 23 24 26 27 26 26 26 26 26 26 28 29 30 30 31 31 32 32 33 33 33 32 29 24 22 20 16 13 12 17 26 26 23 22 19 18 22 24 25 28 34 37 34 27 21 18 15 13 15 12 11 16 15 13 13 15 14 11 8 4 2
16 16 15 13 12 11 11 13 16 17 18 19 18 18 17 18 20 21 22 24 23 22 22 23 24 26 28 28 28 29 29 28 28 29 30 31 31 32 35 35 36 35 34 33 32 30 25 19 18 19 16 12 12 17 26 28 24 21 21 22 24 25 26 30 37 36 26 22 22 22 22 17 16 17 13 15 16 14 13 15 15 14 11 8 5
19 18 17 16 14 13 13 14 16 18 19 20 20 20 20 20 22 22 24 27 26 23 23 25 27 29 30 31 32 32 32 31 31 32 34 33 35 37 38 37 37 36 33 31 29 26 20 17 17 20 18 14 17 21 25 29 30 27 26 27 27 25 25 29 36 33 21 21 23 23 27 26 21 20 17 14 14 15 14 14 16 15 14 12 9
21 21 20 18 17 16 16 17 18 18 18 19 20 22 22 22 23 22 24 28 28 25 26 29 31 31 32 33 34 34 33 34 35 36 37 37 39 39 38 37 36 34 33 29 26 21 17 16 18 21 22 21 24 26 26 27 30 32 33 33 31 27 24 26 30 29 23 23 26 28 34 34 27 23 21 15 13 15 17 15 16 16 16 14 12
21 22 23 22 21 20 19 20 21 21 21 20 21 23 23 23 24 24 26 29 30 28 28 30 32 33 33 34 35 34 34 35 36 37 38 38 38 39 39 38 35 33 32 27 22 19 17 18 19 23 26 27 26 26 27 28 28 31 34 35 36 34 32 31 31 32 31 31 34 36 38 36 29 24 23 18 14 16 17 16 15 16 16 15 13
23 24 24 25 25 24 24 24 24 25 25 25 24 25 25 25 26 26 28 31 31 30 29 30 33 35 36 36 34 34 34 35 36 36 37 37 38 39 39 37 35 32 29 24 20 19 20 20 18 20 23 23 23 23 24 25 25 27 29 30 33 34 34 35 35 37 38 36 36 37 35 31 26 23 24 19 13 14 17 16 15 14 13 12 12
24 25 26 27 27 27 28 28 28 29 29 30 29 28 28 29 29 29 30 32 33 32 30 30 33 35 36 35 34 36 38 38 39 39 38 38 40 40 39 37 34 30 26 22 21 21 22 19 16 17 18 16 15 17 17 18 20 21 23 25 27 29 30 32 33 34 35 34 33 32 29 27 24 23 24 20 15 13 16 17 17 15 12 12 13
25 26 27 28 29 29 30 31 32 32 33 33 34 33 33 33 34 34 34 34 35 34 31 31 34 36 36 37 39 44 47 46 46 44 41 41 41 40 38 35 32 28 24 22 23 22 21 17 15 15 14 12 12 14 14 14 15 16 18 20 23 26 29 30 31 31 31 31 31 29 26 25 23 23 24 23 18 13 15 18 19 18 16 14 15
26 26 27 29 30 31 32 33 34 34 35 35 36 36 37 37 38 38 38 39 39 38 36 35 36 37 39 41 45 49 50 50 49 46 43 42 41 40 37 33 30 26 24 24 23 21 18 16 15 13 11 11 12 14 14 13 14 16 17 17 20 25 29 31 31 30 29 30 32 28 25 25 24 23 25 27 25 17 14 18 20 21 22 20 19
27 27 28 29 31 32 34 35 36 36 37 38 38 39 39 39 40 41 41 42 42 41 41 40 40 41 42 44 45 47 48 48 46 44 42 41 41 39 35 31 28 26 25 25 22 19 18 16 15 14 12 13 14 15 17 17 17 19 19 16 17 21 26 29 29 28 27 29 32 30 27 26 25 25 25 27 31 27 20 19 20 22 24 25 23
28 29 29 30 31 33 34 35 36 37 38 39 39 39 40 40 40 40 40 41 41 41 41 41 41 42 42 42 42 43 43 43 42 42 41 41 39 35 31 29 28 27 27 24 20 19 19 17 16 16 16 16 16 17 19 20 19 20 20 18 17 18 20 22 23 25 26 27 30 31 31 28 26 28 28 28 32 33 29 25 23 24 25 27 26
31 30 30 30 31 32 33 34 35 36 36 37 38 38 39 39 39 39 38 38 39 39 40 40 40 41 41 41 42 42 42 42 42 41 40 39 35 31 28 28 28 29 26 20 19 21 20 18 18 18 17 17 16 17 19 20 19 20 21 21 21 20 19 19 20 20 21 26 30 31 32 31 29 31 32 33 34 35 34 31 29 29 29 29 27
32 32 32 31 31 32 33 33 34 35 36 37 37 38 39 39 40 40 40 40 40 41 41 41 42 42 43 43 43 43 42 41 41 39 38 34 30 28 27 28 28 26 21 19 21 22 20 18 18 18 18 18 17 18 19 20 21 23 23 23 24 23 22 22 22 20 20 28 32 30 30 32 33 34 33 35 37 36 36 33 31 30 30 29 27
33 33 33 33 33 33 33 33 34 35 36 36 37 38 39 40 41 41 42 43 43 44 44 44 44 44 44 43 43 41 40 39 37 35 31 28 27 27 28 27 24 20 18 20 22 22 20 19 19 19 19 19 20 21 21 21 21 22 23 24 24 23 24 23 22 22 23 28 31 28 28 30 34 35 33 34 38 37 36 35 32 30 29 27 27
35 35 34 34 34 34 34 34 34 34 35 36 37 38 39 40 41 42 42 43 43 43 43 42 42 41 40 39 38 37 35 33 31 29 27 26 26 27 27 24 20 18 19 22 23 23 21 20 21 21 22 22 23 24 25 24 22 21 23 25 24 24 25 23 22 23 24 26 29 28 27 29 32 36 35 36 39 39 38 36 34 33 31 28 27
37 36 35 35 35 35 35 35 35 35 36 36 37 38 39 40 40 40 40 39 39 38 37 36 36 35 34 33 32 31 29 27 27 27 27 26 26 26 24 21 20 21 23 25 26 26 25 24 24 25 25 26 27 28 28 28 26 26 26 27 26 27 27 26 24 25 25 26 29 30 30 31 32 36 38 37 38 40 40 38 35 36 36 34 31
38 38 37 36 35 35 35 36 36 36 37 37 38 38 39 38 38 37 35 34 33 32 32 31 30 30 29 29 27 26 25 25 26 27 27 27 25 23 22 22 23 24 26 28 29 29 29 28 28 28 29 30 31 31 31 31 32 32 32 32 31 31 30 29 28 28 28 27 28 30 32 32 32 33 37 38 38 40 42 40 37 38 42 42 38
38 37 36 36 35 35 36 36 36 36 37 37 37 37 36 35 34 33 31 30 29 29 28 27 26 26 26 25 25 24 24 25 25 26 26 26 25 23 23 25 27 29 30 31 32 33 33 33 33 33 33 34 35 35 34 35 35 36 37 36 36 35 33 32 32 31 32 31 29 30 31 32 31 32 35 37 40 41 42 42 42 42 46 47 44
34 34 34 34 34 34 35 35 35 35 35 35 35 34 33 32 31 30 28 27 26 25 24 23 23 23 23 24 24 25 26 26 26 26 26 26 25 25 27 29 31 33 34 36 37 37 38 38 38 38 38 39 40 40 39 39 39 40 40 40 39 38 37 36 35 35 35 36 35 34 33 34 34 33 34 38 42 43 42 43 45 47 49 50 47
26 27 28 29 30 31 31 31 31 32 32 32 32 32 31 30 29 27 25 23 23 22 22 22 23 23 24 25 26 27 28 29 29 29 28 28 27 27 29 32 35 37 39 40 41 42 43 43 44 44 45 45 44 45 45 44 44 44 43 43 42 42 41 40 39 38 38 39 39 38 36 37 38 38 38 40 43 44 44 44 46 48 49 51 49
18 20 21 23 25 26 26 27 28 29 29 29 30 30 29 28 26 24 22 21 21 22 23 24 24 26 27 28 28 29 30 31 31 31 31 32 32 32 32 34 36 39 42 43 45 46 47 48 49 50 50 49 48 48 49 50 49 48 47 46 45 45 45 44 43 43 42 42 42 42 41 41 43 44 43 43 43 44 46 47 47 47 48 51 51
14 15 17 19 20 22 23 23 23 24 24 25 25 26 26 25 24 23 23 22 23 24 25 26 28 29 30 31 32 32 33 34 34 34 34 34 35 36 36 37 38 40 42 44 46 47 49 50 51 51 51 51 51 51 52 53 52 51 50 49 49 49 49 48 47 47 47 46 46 45 46 46 47 48 47 47 44 44 47 50 51 49 50 53 53
13 13 14 15 15 15 15 14 14 15 16 17 18 19 19 20 21 22 23 24 25 26 28 29 31 32 33 34 35 36 37 37 37 38 38 38 38 38 39 40 41 42 43 45 47 48 49 50 51 52 52 53 54 54 54 54 53 53 52 53 53 53 52 52 52 51 51 51 50 49 49 50 51 51 51 50 49 48 49 52 55 54 54 55 56
10 9 9 8 8 8 8 10 11 13 14 15 15 16 16 17 19 20 22 24 26 28 30 31 33 35 36 38 39 40 41 41 42 42 42 42 42 41 41 42 43 44 45 46 48 49 50 51 52 53 54 54 55 55 55 55 56 55 56 57 57 57 56 56 56 56 56 56 55 54 53 53 54 55 55 54 53 53 53 54 57 59 59 58 58
7 8 10 11 10 10 11 12 14 16 17 17 18 18 19 20 21 22 24 25 27 29 30 32 34 35 38 39 41 42 43 43 44 44 44 43 44 44 44 44 45 46 47 47 48 50 51 52 53 54 55 56 56 57 58 58 59 59 60 60 61 61 61 61 60 61 61 60 60 58 58 57 58 59 59 58 56 56 56 56 58 62 63 61 59
5 7 11 13 13 14 15 16 18 20 22 22 22 22 23 24 25 26 27 28 29 31 32 33 34 36 38 40 41 41 42 42 42 42 43 44 44 45 46 46 47 48 49 50 51 52 53 54 55 57 58 59 59 60 61 62 63 63 63 63 64 65 65 65 65 65 65 65 65 64 63 62 62 62 63 62 60 59 58 59 60 63 66 65 62
7 8 12 15 17 18 20 21 23 25 26 26 26 26 26 27 28 30 31 33 33 34 34 36 37 40 42 43 43 42 42 42 43 43 44 45 46 47 48 49 50 51 52 53 54 55 56 57 58 59 60 61 62 62 63 65 66 67 67 67 67 68 68 69 69 69 69 70 70 70 69 68 67 66 66 66 65 63 62 62 64 65 68 70 67
13 13 16 19 21 23 24 25 27 28 28 28 28 28 29 30 31 33 36 37 37 37 38 39 40 42 44 45 44 44 44 43 44 45 46 47 48 49 51 52 53 54 55 57 58 59 60 61 62 62 63 64 65 65 66 67 68 69 69 70 70 71 72 74 74 74 74 75 75 74 73 72 72 71 70 70 70 69 67 66 67 68 71 73 74
16 18 21 23 26 27 27 28 29 30 30 31 31 30 31 33 35 37 39 39 40 40 40 40 42 43 45 46 45 45 46 46 46 46 47 48 50 51 52 54 55 56 58 59 61 62 63 64 65 66 66 67 68 68 68 69 70 71 72 73 74 76 77 78 78 77 77 78 78 78 77 77 76 76 75 75 74 73 72 70 70 71 73 75 77
21 23 25 27 28 29 29 29 30 31 32 33 32 33 35 37 39 39 39 40 41 41 41 41 42 44 46 46 46 47 48 48 49 49 50 51 51 52 53 54 56 57 58 60 62 63 64 65 66 66 66 67 68 69 70 71 72 73 74 75 76 78 79 80 80 79 80 82 82 82 82 81 80 80 79 78 77 76 74 73 73 73 75 78 80
26 28 28 29 29 30 30 31 32 33 34 34 35 37 39 41 41 40 40 41 42 42 42 42 44 46 47 47 48 49 50 51 51 51 52 52 53 54 54 55 57 58 59 61 62 64 65 66 67 67 67 67 69 71 72 73 74 75 75 76 77 78 80 81 83 82 82 84 84 84 83 82 81 81 80 79 78 77 75 74 74 75 77 80 83
29 30 30 31 31 32 33 33 34 34 35 35 37 39 41 43 43 42 41 42 43 43 43 44 46 47 48 49 50 51 52 52 52 53 53 53 54 55 56 57 58 60 61 63 64 65 66 68 69 69 69 69 71 73 74 75 76 77 77 78 78 79 80 81 82 81 81 81 81 80 80 79 78 77 78 77 77 76 75 74 74 76 79 82 85
30 31 32 32 32 33 34 35 35 35 36 38 40 42 44 45 44 43 43 43 44 44 46 47 48 49 49 51 52 53 53 53 54 54 55 56 56 57 58 59 61 62 64 65 66 67 68 69 70 70 71 72 73 75 76 76 76 76 76 76 76 76 76 76 75 75 75 76 75 75 75 73 73 73 73 74 74 74 74 73 74 77 80 83 87
30 32 32 32 33 34 35 36 36 37 38 40 43 45 46 46 45 45 45 45 46 48 49 49 50 50 51 51 52 52 52 53 54 55 56 57 59 60 61 62 63 65 65 66 66 67 68 69 70 71 72 73 73 73 73 72 72 71 71 71 70 69 69 68 68 68 69 70 70 70 70 69 68 69 70 70 71 71 72 72 73 76 80 84 88
31 33 34 34 34 35 37 38 39 40 41 43 46 47 48 47 47 46 46 47 48 49 50 50 50 50 50 50 51 51 52 53 54 56 58 60 61 62 64 64 64 64 64 65 65 66 67 68 68 68 68 67 67 66 66 65 65 65 65 65 64 63 63 62 62 62 63 64 65 66 66 65 65 66 67 67 67 68 70 70 71 75 80 84 88
32 34 35 36 37 38 40 41 41 42 44 47 48 48 48 47 47 46 47 47 48 48 47 47 47 48 48 48 50 51 53 55 57 60 62 64 64 65 65 65 65 64 65 65 65 65 64 63 62 61 61 60 60 59 60 60 61 61 61 61 60 59 58 57 56 57 57 58 59 60 61 61 61 62 63 63 65 67 67 68 70 73 78 82 87
34 35 36 38 39 40 42 43 45 46 47 48 48 47 46 46 45 44 44 44 44 44 45 45 46 47 48 49 51 54 56 58 60 63 65 67 67 67 66 66 65 65 64 63 61 59 58 56 56 55 55 55 55 55 55 56 56 57 57 57 56 55 55 53 52 52 52 53 54 55 56 56 57 59 59 59 62 65 65 66 69 72 75 80 85
38 38 37 38 39 42 44 45 46 46 46 45 45 43 42 41 40 40 41 41 42 43 45 46 47 49 50 52 54 57 59 61 62 64 65 66 66 65 64 63 62 61 60 58 57 55 54 53 52 52 51 51 51 51 52 52 52 52 53 52 52 52 51 49 48 48 48 49 49 50 51 53 54 55 55 56 59 62 63 65 67 69 73 78 83
41 39 38 39 41 42 42 42 42 42 41 39 37 36 35 36 36 38 39 41 43 45 46 48 49 51 53 55 57 59 60 62 62 62 63 63 62 62 62 61 60 59 58 56 55 53 51 50 49 48 47 46 47 47 47 48 48 49 49 49 48 48 47 46 45 45 46 46 46 47 49 50 51 53 54 55 57 59 61 63 64 67 72 76 80
40 38 40 41 39 37 37 36 35 34 32 30 30 31 32 34 36 38 41 43 45 46 47 48 49 51 53 56 59 60 60 60 60 61 62 63 63 63 62 61 59 57 55 53 51 50 48 46 45 44 43 43 42 43 43 43 44 44 45 45 44 43 43 43 43 43 44 44 44 45 46 48 50 51 52 53 55 57 60 62 63 65 69 74 78
39 40 40 38 34 32 31 28 26 25 26 28 30 32 34 37 39 41 44 46 47 48 48 49 49 51 54 57 59 59 60 61 62 63 63 64 63 62 61 59 56 53 50 48 47 45 43 42 41 40 40 39 39 39 39 39 39 40 40 40 41 40 40 40 40 40 41 41 42 42 43 45 47 49 50 52 52 54 56 59 62 63 66 71 75
39 38 35 31 28 24 21 20 21 25 30 33 35 36 38 40 42 44 46 48 49 50 50 50 52 55 57 57 57 58 60 61 62 62 62 62 60 59 56 54 51 47 44 43 42 40 39 37 36 36 36 36 35 35 35 35 34 35 35 36 37 37 36 35 35 36 37 37 38 38 39 41 43 45 47 49 49 50 52 54 58 62 64 67 71
33 30 25 21 18 17 17 19 24 30 35 38 40 41 41 42 43 45 47 49 51 52 53 53 55 57 58 57 58 59 60 60 60 60 59 58 56 53 51 48 45 42 40 38 36 34 33 32 31 31 31 31 31 30 30 29 29 29 30 31 32 32 31 30 29 31 31 31 33 33 33 35 37 40 43 45 49 53 55 54 55 57 60 63 67
21 18 15 14 15 17 19 23 28 34 38 41 43 44 44 44 45 46 48 51 53 54 55 56 57 57 58 59 60 60 59 59 59 58 56 53 51 48 46 43 40 37 35 32 30 28 27 27 27 27 26 25 25 25 24 24 24 24 24 26 26 26 25 25 25 26 27 27 29 29 29 32 34 37 41 45 49 53 54 52 53 54 56 59 63
13 12 12 14 18 21 24 27 32 37 40 43 44 45 45 45 45 47 50 52 54 55 57 58 58 59 59 60 61 60 59 58 57 55 53 49 46 44 41 38 35 32 29 27 24 23 23 22 22 21 21 20 19 19 20 20 20 20 20 21 21 21 21 21 21 23 23 23 25 26 27 31 33 35 38 42 44 46 46 46 49 51 53 57 60
Wind_Direction
260 279 279 262 256 179 148 158 199 210 218 228 226 221 220 223 238 255 267 249 259 305 291 281 282 278 282 295 306 308 304 300 296 290 288 297 304 303 302 303 308 315 320 328 333 331 328 322 315 310 300 295 283 270 283 281 271 273 287 305 308 303 302 310 313 320 327 330 325 308 305 316 318 307 284 262 249 257 278 312 17 175 175 168 164
263 260 246 245 235 195 183 190 210 217 214 211 207 225 241 245 253 264 271 261 267 292 293 283 283 281 285 293 302 307 308 305 298 291 287 291 298 299 300 302 303 304 312 325 330 327 323 319 311 305 300 290 282 287 289 268 265 272 282 292 298 297 295 301 306 312 320 323 320 303 289 290 304 308 291 266 250 248 263 274 291 316 297 181 183
260 248 242 246 227 215 214 210 222 230 226 224 224 238 253 258 258 260 266 268 276 287 285 280 281 284 286 287 294 303 310 310 303 296 294 294 296 298 302 305 305 303 310 321 323 321 320 316 309 302 295 282 287 292 278 280 281 279 281 283 286 285 283 290 301 307 312 316 313 293 271 268 282 291 287 273 255 245 252 265 270 304 338 188 186
255 249 252 246 234 235 232 230 238 247 244 240 241 246 251 250 253 256 263 274 283 283 279 276 278 283 285 284 289 296 305 308 304 300 300 299 299 302 307 310 309 306 310 314 315 316 317 313 305 298 289 279 284 278 269 281 278 270 274 276 277 276 274 281 295 301 304 309 308 289 260 253 264 278 279 278 267 248 244 255 256 254 326 4 173
255 254 259 251 249 251 246 252 261 264 258 247 246 252 252 253 256 259 265 274 281 283 283 282 278 278 280 283 287 293 298 301 300 301 304 304 304 306 310 312 311 308 308 310 312 315 315 310 301 291 283 274 274 273 270 271 265 264 269 269 271 272 270 278 290 294 297 301 301 285 259 243 244 273 279 277 274 256 243 245 246 247 288 355 353
257 257 261 255 253 252 253 267 261 254 252 250 253 254 255 258 261 265 268 272 278 281 281 281 276 274 278 285 289 292 294 294 295 298 303 306 306 306 309 312 311 309 308 308 311 313 312 306 296 285 277 265 246 248 256 258 257 259 261 260 261 259 261 273 282 286 292 297 295 287 269 244 233 256 278 274 271 263 248 241 242 245 260 301 313
261 263 265 259 254 254 254 258 250 242 242 249 254 253 256 262 267 270 271 274 278 280 278 277 277 277 282 288 291 292 291 291 293 297 303 306 305 305 308 312 311 310 308 308 309 309 307 300 290 282 275 259 243 238 241 248 255 251 243 245 251 251 257 267 274 282 291 296 295 291 286 260 237 237 268 274 267 262 252 242 241 243 247 263 288
265 266 265 257 252 256 259 257 251 247 246 247 250 249 254 262 267 269 275 279 281 282 281 280 283 285 287 290 291 291 291 291 292 297 303 302 301 305 309 311 310 308 307 307 307 305 301 291 283 280 268 243 245 251 244 242 247 243 234 237 246 255 263 269 274 282 293 295 288 284 285 280 252 233 248 270 263 261 256 242 240 243 243 250 266
264 266 264 257 251 254 260 263 260 258 255 253 254 255 258 264 266 271 279 282 285 288 285 283 287 289 289 288 288 291 294 295 295 297 298 295 299 306 309 308 307 306 305 305 304 300 294 283 278 277 266 233 225 239 244 241 240 242 241 244 250 259 270 276 277 279 283 282 278 274 277 284 272 240 236 257 257 260 259 244 237 239 241 246 256
264 267 267 264 260 258 260 265 266 266 264 262 263 264 266 266 266 272 277 278 281 283 282 285 290 292 291 291 291 292 294 296 297 299 297 295 299 304 305 306 305 303 303 304 300 292 285 281 278 275 268 252 237 234 239 242 240 242 246 251 256 259 263 266 269 269 263 260 263 265 271 280 277 247 231 241 250 256 258 250 240 234 236 244 252
263 264 266 267 268 266 263 264 265 267 268 267 267 268 268 267 266 267 269 274 279 279 281 287 291 291 289 289 292 293 292 292 295 298 298 297 299 302 303 303 302 301 301 300 293 283 277 277 277 273 267 261 254 245 243 247 245 243 245 251 255 256 254 251 253 257 257 256 259 263 268 273 270 245 227 231 245 253 252 252 249 235 232 242 249
264 262 263 264 266 267 266 265 265 266 267 267 266 267 268 267 266 265 266 272 276 278 283 287 287 286 281 280 285 286 285 287 292 296 296 296 298 300 301 300 299 299 298 294 286 280 279 278 270 265 263 258 254 251 250 253 251 246 245 247 250 252 251 249 250 255 258 260 260 263 265 265 260 239 224 222 235 251 251 254 259 247 241 252 262
266 264 264 265 265 267 267 267 266 265 265 266 266 266 267 268 267 267 267 268 271 275 281 281 280 280 277 273 273 277 283 288 293 295 294 295 297 299 300 298 297 296 292 287 282 281 281 275 255 243 251 252 249 253 256 255 252 246 244 245 247 249 249 249 251 253 257 259 258 258 258 259 254 235 220 215 222 245 253 255 258 254 253 262 272
268 267 267 267 267 267 267 267 267 266 266 266 267 267 266 267 267 267 267 267 269 272 275 275 275 277 276 270 269 276 285 289 291 293 292 294 296 298 298 296 294 291 285 282 282 283 277 263 245 235 244 251 249 255 255 250 249 246 248 251 248 246 247 247 248 250 251 252 254 254 252 254 251 233 220 215 218 236 256 260 256 250 251 259 265
271 270 269 268 268 268 268 268 268 268 268 269 269 269 269 268 269 269 270 270 271 272 272 270 270 272 272 271 272 277 283 285 287 289 290 292 295 297 297 293 289 285 280 281 281 276 263 248 239 235 237 242 246 255 258 251 248 253 260 259 251 247 246 246 248 249 247 248 252 253 249 248 244 233 224 219 219 225 244 260 261 253 250 256 259
273 272 271 270 269 269 269 270 271 271 271 271 271 271 271 271 271 272 273 273 273 274 274 272 271 270 271 272 275 278 282 284 286 287 288 291 295 296 293 289 284 280 279 280 274 258 243 235 238 243 246 246 249 256 260 255 252 259 265 263 260 259 254 252 254 254 252 253 257 255 249 246 245 242 236 228 225 225 229 243 258 261 258 256 252
273 272 272 272 271 271 271 272 273 273 273 273 273 272 272 272 273 273 274 274 274 274 274 274 274 273 274 275 278 280 283 285 286 287 289 292 295 293 288 283 280 279 279 273 255 236 229 232 245 257 261 260 258 257 256 254 253 259 265 266 268 270 266 262 260 258 257 259 260 256 251 250 248 246 243 234 229 230 231 233 241 249 253 252 249
273 273 272 272 272 272 272 273 274 275 276 276 275 274 273 273 274 275 276 275 275 274 274 274 273 274 275 277 279 281 283 284 286 289 291 293 291 286 281 278 278 278 273 254 230 223 227 240 255 263 264 264 263 260 256 254 254 258 261 264 268 271 272 269 265 262 257 254 254 251 250 251 247 243 240 234 231 232 236 238 238 239 242 245 247
275 274 273 273 273 272 273 274 275 276 278 278 278 276 275 275 276 277 277 277 277 276 276 274 274 275 277 278 281 283 283 284 287 289 290 289 284 279 277 277 277 272 256 229 217 222 234 250 260 261 262 265 265 263 257 253 256 259 257 258 263 269 270 269 271 265 247 245 251 250 249 250 249 249 245 239 237 238 240 242 242 240 241 242 242
276 275 274 273 273 273 273 274 275 277 278 279 280 280 279 279 279 279 279 279 278 278 277 276 276 277 279 280 282 282 283 285 286 286 284 280 277 276 277 276 270 254 232 216 217 228 243 255 258 260 262 265 266 265 261 259 262 262 260 259 262 268 268 266 268 263 246 244 253 257 254 253 253 255 253 247 245 244 242 241 238 236 236 238 239
276 275 275 275 275 275 275 276 278 280 281 283 284 284 284 283 282 282 281 281 280 280 279 278 278 278 279 280 281 282 283 283 282 280 276 274 275 277 276 270 254 233 221 218 224 235 246 253 257 261 263 266 267 266 267 268 268 265 263 263 264 267 266 261 259 262 260 256 259 263 262 258 254 253 253 251 248 246 244 243 241 237 232 231 236
278 277 277 278 278 279 279 280 282 284 286 287 287 287 287 286 285 284 283 283 282 281 279 278 278 278 279 280 280 280 279 277 277 276 275 274 275 278 274 258 238 225 222 225 232 239 246 251 256 260 263 265 266 267 269 270 268 264 263 265 265 265 263 260 255 255 260 263 261 263 265 264 259 252 249 249 248 244 242 241 241 241 239 235 234
280 279 279 280 281 283 284 284 285 287 289 289 289 288 288 287 287 286 286 285 284 283 282 281 281 281 281 280 278 276 274 275 278 280 280 278 276 276 267 248 234 229 229 233 238 242 246 252 256 260 262 264 266 267 269 269 269 268 266 265 265 264 263 262 258 250 250 256 258 259 263 268 270 265 256 250 248 245 240 235 233 237 243 244 241
281 281 281 282 284 286 287 288 288 289 289 289 288 288 288 289 289 289 290 289 289 288 286 285 283 281 280 279 278 278 278 278 279 281 283 281 277 271 260 245 237 236 237 240 244 247 250 253 256 260 263 264 265 267 269 269 270 269 267 265 265 265 265 263 261 253 248 250 252 254 257 262 268 272 266 254 246 244 241 234 229 229 238 247 248
283 282 282 283 286 288 289 289 289 289 289 289 289 290 290 291 291 292 292 292 290 289 287 285 283 281 281 282 283 283 282 281 280 279 280 281 277 269 259 250 244 242 243 245 248 252 254 257 259 262 265 266 267 268 270 270 270 268 267 265 264 265 266 264 263 259 254 251 249 248 250 254 258 263 261 253 245 241 240 236 231 228 233 242 248
290 287 286 287 289 289 290 290 290 290 291 291 292 292 293 292 292 291 291 290 289 288 286 285 284 283 282 282 282 282 282 282 282 281 280 280 278 273 264 257 252 250 250 250 252 255 258 260 263 266 268 269 268 269 270 271 269 268 266 264 263 264 265 265 263 262 259 255 251 247 245 248 252 253 251 250 248 242 237 236 234 231 231 237 242
301 297 294 293 292 292 293 293 294 294 295 295 295 295 295 294 292 290 288 286 285 285 284 284 283 282 281 280 279 280 281 281 282 282 281 279 278 277 272 266 261 258 257 257 257 259 261 263 265 268 269 269 268 268 270 271 270 268 266 263 263 265 265 264 264 262 261 258 255 251 246 244 246 247 248 249 250 245 239 234 233 232 231 232 235
313 307 302 299 299 299 299 299 300 301 302 303 303 301 299 297 295 293 290 287 285 284 283 282 282 282 281 281 280 280 280 280 280 280 280 278 277 276 275 272 269 266 264 263 262 263 263 265 266 267 268 268 268 268 268 269 269 268 266 264 264 265 265 264 263 262 261 260 257 255 251 248 246 246 247 248 248 247 243 237 232 231 230 231 231
321 315 311 309 309 310 311 314 320 325 327 325 323 318 313 308 304 301 297 294 291 289 287 286 285 285 284 283 282 282 281 281 280 280 279 278 277 276 275 273 270 268 267 266 266 265 265 265 266 267 267 267 267 267 267 267 267 267 266 266 266 266 266 265 264 263 262 261 259 257 254 252 251 249 247 246 245 244 244 241 237 232 230 230 230
339 340 345 347 352 360 6 10 10 6 359 352 346 339 332 324 318 313 308 303 299 295 292 291 290 289 288 287 286 285 284 283 282 281 279 277 274 274 274 273 271 269 267 266 266 266 266 266 266 266 266 267 267 267 267 267 267 266 267 267 267 267 266 266 265 265 264 262 260 258 256 254 253 252 250 247 245 243 243 243 241 237 234 232 230
12 32 30 24 22 21 18 14 9 4 358 352 347 341 336 331 326 321 316 311 306 301 298 296 295 294 293 292 290 288 287 286 284 282 280 276 273 272 272 272 271 270 268 267 267 266 266 266 266 266 265 266 266 267 267 268 268 267 267 267 267 267 266 266 266 266 265 264 262 260 257 255 254 253 252 250 247 245 243 243 241 239 236 234 231
17 26 12 3 358 353 349 346 345 346 345 342 339 335 332 329 326 322 318 315 310 306 303 301 299 299 298 297 294 291 289 287 286 284 281 278 275 274 272 271 271 270 269 268 268 267 266 266 266 266 266 266 266 266 267 267 268 268 267 267 267 267 266 266 265 265 265 264 263 261 259 257 255 253 253 252 249 247 245 244 242 238 235 233 231
328 341 343 342 341 339 335 333 333 334 334 333 330 327 326 324 321 319 317 315 312 309 306 304 303 303 302 301 298 294 291 288 285 284 282 280 278 276 275 273 272 271 269 269 269 268 267 266 266 266 266 267 267 267 267 267 268 268 268 268 268 267 267 266 265 265 265 264 263 262 260 258 256 254 253 253 252 249 246 244 243 239 234 231 229
310 313 320 325 328 329 328 328 328 328 327 325 323 321 320 318 316 315 313 312 311 308 305 304 303 304 304 303 300 297 294 290 286 283 281 279 278 277 276 274 273 272 271 271 270 270 269 268 267 266 266 266 266 267 267 268 268 268 268 268 268 268 267 267 266 266 265 264 263 262 261 259 258 256 254 253 253 251 249 246 243 239 235 231 228
314 311 312 315 319 321 324 325 325 323 320 318 318 317 316 314 312 311 310 310 308 306 303 301 301 302 302 301 300 298 296 292 289 286 283 281 279 278 277 276 275 275 274 273 272 271 270 269 268 267 266 266 266 266 266 266 266 267 267 267 267 267 267 267 266 266 265 265 264 263 261 260 259 258 256 255 253 252 250 247 243 239 235 231 227
316 317 316 316 317 319 321 321 320 318 315 314 315 314 314 313 311 309 309 309 308 305 302 300 299 299 299 298 298 296 295 294 292 290 287 285 283 282 280 279 278 277 276 275 275 274 272 271 270 269 269 269 269 269 269 268 268 267 267 267 266 266 266 266 265 265 265 265 264 263 262 261 260 259 257 255 253 251 249 246 243 239 234 230 227
316 317 317 317 316 316 317 316 315 314 313 312 312 312 314 314 313 311 310 309 308 306 303 301 299 299 298 297 297 297 297 296 294 292 290 289 287 285 284 282 281 280 278 277 277 276 275 275 275 274 274 274 273 273 272 271 270 270 269 268 267 267 267 266 266 265 265 264 263 262 261 260 259 258 256 254 252 250 247 244 241 237 233 230 227
315 315 315 314 313 313 313 312 312 312 312 311 311 312 314 315 315 313 311 309 308 306 305 303 301 300 300 299 299 299 299 297 295 293 291 289 288 286 285 283 282 281 280 280 279 279 279 279 279 278 278 277 276 275 274 273 273 272 271 270 269 268 267 267 266 265 264 263 262 261 259 258 257 255 254 252 250 248 245 241 238 235 232 229 227
313 313 312 311 310 310 310 310 310 311 311 311 312 314 315 316 314 313 312 311 310 309 308 307 305 304 303 303 302 301 300 298 297 295 293 291 290 288 287 286 285 284 283 283 282 282 281 281 280 280 279 279 278 277 276 275 274 273 272 271 270 268 267 266 265 264 263 262 261 259 258 256 254 253 251 250 248 246 243 239 236 233 230 227 226
313 313 312 310 309 308 307 308 310 312 313 314 315 315 316 315 314 314 314 314 313 313 312 311 309 308 306 305 303 302 300 299 297 296 295 294 292 291 289 288 287 286 285 285 284 283 283 282 282 281 281 280 279 278 277 276 275 273 272 270 269 268 266 265 264 263 262 261 260 258 257 255 253 251 249 247 245 244 242 238 234 232 229 226 224
310 311 310 308 306 306 307 309 311 312 313 314 315 315 316 316 316 316 316 317 317 316 314 313 311 309 307 306 304 302 301 300 299 298 296 295 293 292 291 290 290 289 289 288 288 287 286 285 283 282 281 279 278 278 277 276 275 273 272 270 269 268 267 266 264 263 261 260 259 258 256 254 251 249 248 246 244 241 240 237 234 231 229 227 224
307 307 307 306 305 306 307 309 310 312 312 313 314 316 317 317 317 319 320 320 319 317 314 312 311 310 309 308 307 306 304 303 302 301 300 298 297 297 296 296 296 295 294 292 290 289 288 286 284 283 281 280 279 278 277 276 275 274 272 272 271 270 269 267 265 263 261 259 257 256 254 252 250 248 246 245 243 240 237 236 233 231 229 227 225
306 306 306 307 306 307 308 309 310 310 311 313 315 317 318 320 322 323 323 321 319 316 315 314 313 312 311 310 309 308 307 306 305 304 302 301 300 300 299 298 297 296 295 294 293 291 290 289 287 285 283 282 280 278 277 276 275 274 273 272 272 271 269 267 264 261 259 257 255 253 252 250 249 247 245 243 242 240 237 234 232 230 229 228 226
305 306 306 308 307 307 307 308 309 310 313 316 319 322 324 327 328 327 325 322 320 319 318 317 316 314 313 312 311 310 309 308 306 304 302 301 301 301 300 299 299 299 298 298 297 295 293 291 288 286 283 281 279 278 277 276 275 274 273 272 271 270 268 265 263 260 257 254 252 251 250 248 247 246 244 241 240 240 238 235 231 229 229 228 227
303 304 305 307 306 306 307 309 312 316 320 324 328 331 334 335 334 333 331 329 327 324 322 319 318 317 316 316 314 313 311 309 307 306 305 305 305 305 304 304 304 304 303 302 299 297 294 291 288 285 283 281 279 278 277 276 275 274 273 271 270 268 266 264 261 258 256 253 250 248 247 247 246 244 243 241 239 238 238 236 233 229 228 228 228
301 301 301 304 306 308 311 317 323 329 334 339 343 345 345 344 343 341 339 337 334 330 327 324 322 321 321 320 318 315 314 313 313 312 312 311 311 310 309 308 307 306 304 301 298 296 294 291 288 286 284 282 280 278 276 274 273 272 271 269 268 266 264 262 260 257 255 253 250 247 245 244 244 243 242 240 238 237 236 235 233 230 228 228 228
297 296 298 303 308 314 323 333 342 349 352 353 352 351 349 348 346 344 342 340 338 336 332 329 327 326 324 323 321 320 320 319 318 317 316 314 313 312 310 309 308 306 303 301 298 296 294 292 289 287 284 282 279 276 273 271 269 268 267 266 266 264 262 261 259 258 255 253 250 247 244 242 241 241 240 239 238 237 236 234 232 230 228 227 227
292 293 298 307 317 330 345 359 2 359 357 356 355 353 350 348 345 344 342 341 340 338 336 333 330 329 327 326 326 326 325 323 320 319 317 316 315 313 312 311 309 308 305 302 300 298 295 292 289 285 282 279 276 273 271 269 267 266 265 265 264 264 262 261 260 258 256 254 251 248 244 241 239 238 238 237 236 235 233 231 230 229 228 226 226
292 298 309 324 341 359 8 4 357 355 355 355 354 352 349 346 344 343 342 341 340 339 337 335 333 331 331 331 331 329 326 324 322 321 320 319 318 317 316 315 313 311 308 305 301 297 294 290 286 282 279 276 274 272 270 269 268 266 265 264 264 264 264 262 261 259 258 256 254 250 247 243 238 235 235 234 232 233 231 228 227 227 227 227 226
307 320 339 359 9 6 358 352 350 351 352 352 351 350 347 344 342 342 341 341 340 339 338 336 334 334 335 335 334 331 329 327 326 325 324 324 323 322 321 320 318 315 311 307 302 298 293 289 285 283 280 278 275 273 272 272 271 269 267 266 265 265 265 263 261 259 257 256 254 252 248 245 240 235 233 231 231 233 232 230 228 227 226 227 227
343 360 10 7 358 352 349 348 347 348 349 349 348 347 344 342 341 341 340 340 340 339 338 337 336 337 338 338 336 334 333 332 331 330 329 329 330 329 328 326 322 318 314 310 306 302 297 294 290 287 284 282 280 279 277 275 273 271 268 266 266 266 264 262 260 258 257 255 254 251 247 244 240 237 235 234 233 235 235 232 230 229 227 226 226
Height
10997 10996 10995 10995 10995 10994 10993 10993 10993 10993 10992 10992 10992 10993 10992 10991 10990 10988 10988 10987 10987 10987 10988 10990 10992 10993 10992 10991 10989 10987 10986 10985 10983 10982 10980 10980 10979 10978 10977 10976 10975 10974 10973 10972 10971 10970 10969 10968 10967 10967 10966 10965 10964 10964 10964 10962 10961 10960 10960 10959 10957 10956 10954 10954 10954 10954 10955 10955 10954 10952 10952 10951 10949 10948 10947 10947 10946 10946 10946 10945 10944 10943 10942 10941 10940
10996 10995 10994 10994 10994 10994 10993 10993 10993 10992 10992 10991 10991 10992 10991 10991 10990 10989 10988 10988 10988 10988 10989 10990 10991 10991 10990 10989 10987 10985 10984 10983 10982 10980 10978 10978 10977 10976 10975 10974 10972 10972 10971 10970 10969 10968 10966 10965 10964 10964 10964 10963 10962 10962 10962 10961 10960 10960 10960 10958 10957 10955 10953 10952 10952 10952 10953 10953 10953 10952 10951 10950 10949 10948 10947 10946 10946 10945 10945 10945 10944 10943 10942 10941 10940
10995 10994 10993 10993 10993 10993 10993 10993 10993 10992 10992 10991 10991 10991 10990 10990 10990 10989 10989 10989 10989 10989 10989 10990 10989 10988 10988 10986 10985 10984 10982 10981 10980 10978 10977 10976 10975 10974 10973 10972 10970 10969 10968 10968 10967 10967 10965 10962 10961 10961 10961 10961 10961 10960 10960 10960 10960 10960 10959 10958 10957 10955 10953 10951 10950 10950 10951 10951 10952 10951 10950 10949 10948 10947 10946 10945 10945 10945 10945 10944 10943 10943 10942 10940 10939
10994 10993 10993 10993 10993 10993 10993 10993 10994 10993 10992 10991 10990 10989 10989 10989 10989 10988 10988 10988 10988 10988 10988 10987 10987 10986 10985 10984 10983 10982 10980 10979 10978 10977 10975 10974 10973 10972 10971 10970 10968 10966 10965 10964 10965 10964 10963 10960 10959 10958 10958 10959 10959 10959 10959 10958 10959 10958 10957 10957 10956 10954 10951 10950 10949 10948 10949 10950 10950 10950 10949 10948 10947 10946 10945 10944 10944 10944 10944 10943 10943 10942 10941 10940 10939
10993 10992 10992 10992 10993 10993 10993 10994 10995 10995 10993 10991 10989 10988 10988 10987 10987 10987 10987 10987 10987 10987 10986 10985 10984 10984 10983 10982 10981 10980 10978 10977 10976 10974 10973 10971 10970 10969 10968 10967 10966 10965 10962 10961 10960 10960 10960 10957 10955 10955 10955 10956 10957 10958 10957 10956 10956 10956 10955 10954 10954 10952 10950 10948 10947 10947 10947 10948 10949 10948 10947 10946 10946 10945 10944 10943 10943 10943 10943 10942 10942 10942 10941 10940 10939
10992 10991 10992 10992 10992 10992 10993 10994 10994 10993 10991 10990 10988 10987 10986 10986 10986 10986 10985 10985 10985 10985 10984 10983 10982 10982 10981 10980 10979 10977 10976 10974 10973 10972 10970 10968 10967 10965 10965 10964 10964 10962 10960 10958 10956 10956 10956 10954 10952 10951 10952 10953 10954 10955 10954 10953 10952 10952 10952 10952 10951 10950 10948 10946 10946 10945 10946 10946 10946 10946 10945 10944 10944 10944 10943 10942 10942 10941 10942 10941 10941 10941 10941 10940 10939
10991 10991 10990 10991 10990 10990 10990 10990 10990 10989 10988 10987 10986 10985 10985 10985 10984 10983 10983 10982 10982 10982 10982 10981 10980 10979 10978 10977 10976 10975 10973 10972 10970 10969 10968 10966 10964 10962 10961 10961 10960 10959 10958 10955 10954 10953 10952 10951 10949 10948 10948 10949 10950 10951 10950 10949 10949 10949 10949 10948 10948 10947 10946 10944 10943 10943 10944 10944 10943 10943 10943 10943 10943 10942 10942 10941 10941 10940 10940 10940 10940 10940 10940 10940 10939
10990 10989 10989 10989 10989 10988 10988 10987 10987 10986 10985 10984 10983 10983 10983 10983 10982 10981 10980 10979 10979 10980 10979 10978 10978 10977 10976 10974 10973 10972 10971 10969 10967 10966 10965 10963 10961 10960 10958 10957 10956 10956 10955 10953 10951 10950 10949 10948 10946 10945 10945 10945 10947 10947 10946 10945 10946 10946 10946 10945 10945 10944 10944 10942 10940 10942 10943 10941 10940 10939 10940 10941 10941 10940 10940 10940 10939 10939 10939 10939 10939 10940 10940 10940 10939
10988 10987 10987 10987 10987 10986 10986 10985 10984 10983 10983 10982 10981 10980 10980 10980 10979 10978 10977 10976 10976 10977 10976 10975 10975 10974 10973 10971 10970 10969 10968 10966 10965 10963 10962 10960 10959 10957 10956 10954 10953 10951 10951 10950 10948 10947 10947 10946 10944 10942 10942 10942 10943 10943 10941 10941 10942 10943 10942 10942 10942 10942 10942 10940 10938 10940 10941 10939 10938 10937 10936 10938 10939 10939 10938 10938 10938 10938 10938 10938 10938 10939 10939 10939 10939
10986 10985 10985 10985 10985 10984 10983 10982 10981 10980 10980 10979 10978 10977 10977 10977 10976 10976 10974 10972 10972 10973 10972 10971 10971 10971 10969 10967 10966 10965 10964 10963 10961 10960 10958 10957 10956 10954 10953 10951 10949 10947 10946 10946 10945 10944 10944 10943 10941 10939 10939 10939 10940 10939 10938 10938 10939 10939 10939 10939 10939 10939 10939 10938 10937 10937 10938 10937 10936 10934 10934 10935 10936 10936 10936 10937 10937 10937 10937 10937 10937 10938 10938 10938 10938
10983 10983 10982 10982 10982 10981 10980 10979 10978 10978 10977 10976 10975 10974 10974 10974 10973 10972 10971 10969 10968 10969 10968 10967 10967 10966 10964 10963 10962 10961 10960 10959 10957 10956 10955 10954 10952 10950 10949 10947 10946 10943 10942 10942 10942 10941 10941 10941 10938 10936 10935 10935 10936 10935 10935 10935 10935 10935 10936 10936 10935 10935 10936 10936 10934 10934 10934 10934 10932 10931 10931 10932 10933 10934 10934 10936 10936 10936 10936 10936 10936 10937 10937 10937 10937
10980 10980 10979 10979 10978 10977 10977 10976 10975 10975 10975 10974 10973 10972 10971 10970 10970 10969 10968 10966 10965 10965 10964 10964 10963 10961 10960 10958 10957 10957 10956 10955 10954 10952 10951 10950 10948 10946 10945 10943 10941 10939 10938 10937 10938 10938 10937 10937 10936 10933 10930 10931 10932 10932 10932 10931 10931 10932 10933 10933 10931 10931 10931 10931 10931 10930 10929 10929 10929 10928 10929 10930 10931 10932 10933 10934 10935 10935 10935 10936 10936 10936 10936 10937 10937
10977 10977 10976 10976 10975 10974 10973 10972 10972 10972 10972 10971 10969 10969 10968 10967 10966 10965 10965 10963 10962 10961 10961 10961 10959 10958 10957 10955 10954 10953 10952 10951 10950 10949 10948 10946 10944 10942 10940 10939 10937 10936 10934 10933 10934 10934 10933 10933 10932 10930 10928 10929 10930 10929 10928 10928 10928 10928 10929 10929 10928 10927 10927 10927 10927 10926 10926 10926 10925 10925 10926 10927 10929 10930 10931 10932 10933 10934 10934 10935 10935 10935 10935 10936 10936
10974 10974 10973 10973 10972 10971 10970 10969 10969 10968 10968 10967 10966 10965 10964 10963 10962 10962 10961 10960 10958 10957 10957 10957 10956 10954 10953 10952 10950 10949 10947 10946 10946 10945 10944 10942 10940 10938 10936 10934 10933 10932 10931 10930 10930 10930 10929 10929 10929 10928 10927 10927 10927 10926 10925 10925 10925 10925 10925 10924 10924 10923 10922 10923 10923 10923 10923 10923 10922 10922 10924 10925 10927 10928 10930 10931 10932 10932 10933 10934 10934 10934 10934 10934 10935
10971 10970 10970 10970 10969 10968 10967 10966 10965 10965 10964 10963 10962 10961 10960 10959 10958 10957 10956 10955 10954 10953 10953 10952 10951 10950 10949 10948 10946 10944 10943 10942 10941 10941 10940 10938 10936 10933 10931 10930 10929 10928 10927 10927 10926 10926 10926 10926 10926 10927 10927 10926 10925 10924 10923 10923 10922 10922 10922 10921 10920 10920 10919 10918 10918 10918 10919 10919 10919 10920 10921 10923 10925 10926 10928 10929 10930 10930 10931 10932 10932 10932 10932 10933 10933
10968 10967 10966 10966 10965 10964 10963 10962 10961 10960 10960 10959 10958 10957 10955 10954 10953 10952 10951 10950 10950 10949 10948 10947 10946 10945 10944 10943 10942 10940 10938 10937 10936 10935 10935 10933 10931 10929 10927 10925 10924 10924 10923 10923 10923 10923 10923 10923 10923 10924 10925 10925 10924 10923 10921 10920 10920 10919 10919 10919 10918 10917 10916 10915 10915 10915 10916 10916 10915 10916 10918 10920 10922 10924 10925 10926 10927 10927 10928 10929 10930 10930 10930 10930 10931
10963 10963 10962 10961 10961 10960 10959 10958 10957 10956 10955 10954 10953 10952 10951 10950 10949 10948 10947 10946 10945 10944 10943 10943 10942 10941 10940 10939 10938 10936 10934 10932 10931 10930 10929 10928 10926 10924 10922 10921 10920 10919 10919 10919 10919 10920 10920 10921 10921 10921 10922 10921 10920 10920 10918 10917 10918 10917 10916 10915 10914 10914 10913 10913 10913 10913 10913 10912 10911 10912 10915 10917 10919 10921 10922 10923 10924 10924 10925 10925 10926 10927 10927 10927 10927
10959 10958 10958 10957 10956 10955 10954 10953 10952 10951 10949 10948 10947 10947 10946 10945 10944 10943 10942 10941 10940 10940 10939 10938 10937 10936 10935 10934 10933 10931 10929 10927 10926 10924 10923 10922 10921 10920 10918 10917 10916 10915 10915 10915 10916 10917 10918 10918 10918 10918 10917 10917 10916 10916 10914 10913 10913 10913 10912 10911 10910 10910 10911 10912 10912 10912 10912 10909 10907 10909 10911 10913 10915 10916 10918 10919 10920 10921 10921 10922 10922 10922 10923 10923 10924
10955 10954 10953 10952 10952 10951 10950 10948 10947 10946 10945 10944 10942 10942 10941 10940 10939 10938 10937 10936 10936 10935 10934 10933 10932 10930 10929 10928 10927 10926 10924 10922 10921 10919 10918 10917 10916 10915 10914 10913 10912 10911 10911 10911 10913 10914 10915 10915 10915 10914 10914 10913 10913 10912 10911 10910 10909 10909 10908 10906 10906 10906 10908 10909 10910 10911 10910 10906 10903 10906 10908 10909 10910 10911 10913 10915 10915 10917 10918 10918 10919 10918 10919 10920 10921
10951 10950 10949 10948 10947 10946 10945 10944 10943 10942 10941 10939 10938 10937 10936 10935 10934 10933 10932 10931 10930 10929 10928 10927 10925 10924 10923 10922 10921 10920 10918 10917 10915 10914 10914 10913 10912 10911 10910 10909 10908 10907 10907 10908 10910 10911 10912 10912 10911 10911 10910 10909 10909 10908 10907 10907 10906 10904 10903 10902 10902 10903 10904 10906 10907 10907 10906 10902 10900 10903 10905 10906 10907 10907 10909 10911 10911 10912 10914 10914 10915 10915 10915 10916 10917
10946 10945 10944 10943 10942 10941 10940 10939 10938 10937 10936 10935 10934 10932 10931 10929 10928 10927 10926 10925 10924 10923 10921 10920 10919 10918 10917 10917 10916 10915 10913 10912 10911 10910 10909 10909 10908 10907 10906 10905 10905 10905 10904 10905 10907 10907 10908 10908 10908 10907 10906 10905 10904 10903 10902 10902 10901 10900 10899 10898 10899 10900 10900 10901 10903 10903 10902 10900 10898 10899 10902 10903 10903 10903 10904 10906 10907 10908 10909 10910 10910 10911 10912 10913 10914
10941 10940 10939 10939 10938 10937 10936 10935 10934 10933 10932 10931 10929 10928 10926 10925 10923 10922 10921 10920 10918 10917 10916 10915 10914 10913 10912 10912 10911 10910 10909 10908 10906 10906 10905 10905 10904 10903 10902 10902 10901 10902 10902 10902 10902 10903 10904 10904 10903 10903 10902 10901 10899 10898 10898 10896 10895 10894 10894 10895 10896 10897 10897 10897 10899 10899 10899 10898 10896 10895 10898 10899 10900 10899 10899 10901 10903 10903 10904 10905 10906 10907 10908 10910 10911
10936 10935 10935 10934 10933 10932 10931 10930 10930 10929 10928 10926 10925 10923 10922 10920 10919 10917 10916 10915 10914 10912 10911 10910 10909 10908 10908 10907 10907 10906 10905 10904 10903 10901 10900 10900 10900 10899 10899 10898 10898 10898 10898 10898 10898 10898 10898 10899 10898 10898 10897 10896 10894 10893 10894 10892 10890 10890 10889 10890 10892 10893 10893 10893 10894 10894 10895 10895 10895 10894 10895 10896 10897 10896 10895 10896 10897 10898 10899 10901 10903 10904 10905 10905 10908
10931 10931 10930 10930 10929 10928 10927 10926 10926 10925 10924 10922 10921 10919 10918 10916 10914 10913 10912 10910 10909 10908 10907 10906 10906 10905 10904 10903 10902 10902 10901 10900 10899 10898 10897 10896 10895 10895 10895 10895 10895 10895 10894 10894 10893 10893 10893 10893 10893 10892 10892 10891 10889 10888 10889 10888 10887 10885 10885 10884 10885 10886 10888 10888 10888 10889 10890 10891 10892 10893 10893 10894 10894 10893 10891 10891 10891 10892 10894 10897 10899 10900 10900 10900 10902
10926 10926 10926 10926 10925 10924 10924 10923 10922 10921 10919 10918 10916 10915 10914 10912 10910 10909 10908 10906 10905 10905 10904 10903 10902 10901 10900 10899 10898 10897 10896 10895 10895 10894 10893 10892 10891 10891 10891 10891 10890 10890 10890 10889 10888 10888 10887 10887 10887 10887 10886 10885 10884 10882 10883 10883 10882 10880 10879 10879 10879 10880 10881 10881 10882 10883 10884 10886 10888 10890 10892 10892 10891 10888 10887 10886 10885 10886 10889 10891 10893 10894 10895 10895 10896
10922 10923 10923 10922 10922 10921 10920 10919 10918 10916 10915 10914 10912 10911 10910 10908 10907 10905 10904 10903 10902 10901 10901 10900 10899 10898 10897 10896 10894 10893 10892 10891 10890 10889 10889 10888 10887 10887 10886 10886 10886 10885 10885 10884 10883 10883 10882 10881 10881 10880 10880 10880 10878 10876 10875 10876 10877 10875 10873 10873 10873 10873 10873 10874 10875 10876 10878 10879 10881 10885 10887 10887 10884 10881 10880 10880 10880 10882 10884 10885 10886 10888 10890 10891 10892
10920 10920 10920 10919 10918 10917 10916 10915 10914 10913 10911 10910 10909 10908 10906 10905 10904 10903 10901 10900 10899 10898 10897 10896 10895 10894 10893 10891 10890 10889 10888 10887 10886 10885 10884 10883 10882 10882 10881 10880 10880 10880 10879 10879 10878 10877 10876 10875 10874 10873 10873 10873 10872 10870 10869 10868 10868 10868 10867 10866 10866 10866 10866 10867 10868 10869 10871 10872 10874 10877 10880 10879 10876 10874 10874 10874 10876 10879 10880 10879 10879 10881 10884 10885 10886
10918 10917 10917 10916 10916 10915 10914 10912 10911 10910 10908 10907 10906 10905 10904 10903 10901 10900 10899 10898 10896 10895 10894 10892 10891 10889 10888 10887 10886 10885 10884 10882 10881 10880 10879 10878 10877 10876 10875 10875 10874 10873 10873 10872 10871 10870 10869 10868 10867 10866 10865 10864 10864 10863 10862 10860 10859 10859 10859 10859 10858 10858 10859 10859 10860 10861 10862 10864 10866 10868 10870 10870 10868 10867 10868 10868 10871 10874 10874 10873 10872 10874 10876 10877 10879
10916 10915 10915 10914 10913 10912 10911 10910 10909 10908 10906 10905 10904 10903 10902 10901 10900 10898 10897 10895 10894 10892 10891 10889 10887 10886 10884 10882 10881 10879 10878 10877 10876 10875 10873 10872 10871 10870 10869 10868 10867 10866 10865 10864 10863 10862 10862 10861 10859 10858 10857 10856 10855 10854 10854 10852 10851 10851 10850 10849 10850 10850 10850 10851 10851 10852 10853 10855 10857 10858 10860 10861 10860 10859 10860 10862 10864 10865 10866 10866 10865 10867 10868 10870 10873
10916 10914 10914 10913 10912 10911 10910 10909 10908 10907 10906 10905 10903 10902 10901 10899 10898 10896 10894 10893 10891 10889 10887 10886 10884 10882 10880 10878 10876 10874 10873 10871 10870 10869 10867 10866 10865 10864 10862 10861 10860 10859 10858 10857 10855 10854 10853 10852 10850 10849 10848 10847 10846 10845 10844 10843 10842 10842 10841 10840 10840 10840 10841 10841 10841 10842 10843 10844 10846 10848 10850 10851 10851 10850 10851 10853 10855 10857 10858 10859 10860 10861 10863 10864 10867
10916 10915 10914 10913 10912 10912 10911 10909 10908 10907 10906 10904 10903 10901 10899 10897 10896 10894 10892 10890 10888 10886 10884 10882 10880 10877 10875 10873 10871 10869 10867 10865 10863 10862 10860 10859 10858 10856 10855 10854 10853 10851 10850 10849 10848 10846 10845 10843 10841 10840 10839 10837 10836 10835 10834 10832 10831 10831 10832 10830 10829 10830 10831 10831 10831 10832 10832 10833 10834 10837 10839 10840 10840 10840 10840 10842 10845 10848 10850 10851 10852 10854 10857 10859 10862
10916 10915 10914 10913 10912 10911 10910 10909 10907 10906 10904 10903 10901 10899 10897 10895 10893 10891 10889 10887 10885 10882 10880 10878 10875 10873 10870 10867 10865 10862 10860 10858 10856 10854 10852 10851 10850 10848 10847 10846 10844 10843 10841 10840 10839 10837 10835 10834 10832 10830 10828 10827 10826 10825 10823 10821 10820 10819 10820 10819 10819 10819 10819 10819 10820 10821 10821 10820 10821 10824 10827 10828 10829 10829 10829 10831 10834 10837 10840 10842 10842 10845 10848 10852 10856
10916 10915 10914 10912 10911 10910 10908 10907 10905 10904 10902 10900 10899 10897 10895 10893 10890 10888 10886 10883 10881 10878 10875 10873 10870 10867 10865 10861 10859 10856 10853 10851 10849 10847 10845 10843 10841 10840 10838 10837 10835 10834 10832 10831 10829 10827 10825 10824 10822 10820 10818 10816 10815 10814 10812 10810 10808 10807 10807 10807 10807 10806 10806 10805 10806 10808 10808 10807 10808 10809 10812 10814 10816 10817 10818 10819 10822 10825 10829 10831 10831 10833 10838 10843 10848
10916 10914 10913 10911 10910 10908 10906 10905 10903 10901 10899 10898 10896 10894 10892 10890 10887 10885 10882 10879 10876 10873 10871 10868 10865 10862 10859 10856 10853 10849 10847 10844 10842 10839 10837 10835 10833 10831 10829 10827 10826 10825 10823 10821 10819 10817 10815 10813 10811 10810 10808 10806 10804 10803 10801 10799 10797 10795 10794 10794 10794 10793 10792 10791 10791 10794 10794 10793 10793 10795 10797 10799 10800 10802 10805 10807 10809 10812 10816 10819 10820 10822 10826 10831 10838
10915 10914 10912 10910 10908 10906 10904 10902 10901 10899 10897 10894 10892 10890 10888 10886 10883 10881 10878 10875 10872 10869 10866 10863 10859 10856 10853 10850 10846 10843 10840 10837 10834 10831 10829 10827 10824 10822 10820 10818 10816 10814 10812 10810 10808 10806 10803 10801 10799 10798 10797 10795 10792 10791 10789 10787 10785 10784 10782 10781 10780 10778 10777 10776 10776 10779 10780 10777 10777 10779 10780 10783 10785 10787 10790 10793 10795 10798 10802 10805 10807 10809 10813 10819 10826
10914 10912 10911 10909 10906 10904 10902 10900 10898 10896 10893 10891 10889 10886 10884 10881 10878 10875 10872 10869 10866 10863 10860 10857 10854 10850 10847 10843 10840 10836 10833 10829 10826 10824 10821 10818 10816 10814 10811 10809 10806 10804 10801 10798 10796 10793 10791 10788 10786 10785 10784 10782 10779 10777 10775 10773 10772 10771 10770 10769 10767 10765 10763 10762 10760 10763 10765 10762 10761 10762 10763 10766 10769 10771 10773 10776 10780 10783 10787 10791 10793 10795 10799 10805 10812
10912 10910 10908 10906 10904 10901 10899 10897 10895 10892 10890 10887 10885 10882 10879 10876 10873 10870 10867 10864 10860 10857 10854 10850 10847 10843 10840 10836 10833 10829 10826 10822 10819 10816 10812 10809 10807 10804 10801 10798 10795 10793 10790 10787 10784 10781 10778 10775 10772 10771 10770 10768 10766 10762 10760 10758 10756 10756 10755 10754 10753 10751 10749 10746 10744 10746 10748 10745 10745 10746 10747 10749 10753 10755 10756 10759 10763 10766 10771 10776 10779 10781 10785 10791 10797
10909 10907 10906 10903 10901 10899 10896 10894 10891 10888 10886 10883 10880 10877 10874 10871 10867 10864 10861 10858 10854 10851 10847 10844 10840 10837 10833 10829 10826 10822 10818 10815 10811 10807 10804 10800 10798 10795 10791 10788 10785 10781 10778 10776 10772 10769 10766 10762 10759 10757 10755 10754 10751 10747 10744 10742 10740 10740 10738 10737 10736 10735 10733 10731 10728 10729 10729 10728 10729 10730 10731 10734 10737 10739 10740 10743 10746 10750 10755 10761 10765 10767 10771 10777 10783
10907 10905 10903 10901 10898 10896 10893 10890 10887 10885 10882 10879 10876 10872 10869 10866 10862 10859 10855 10851 10848 10844 10841 10837 10834 10830 10827 10823 10819 10814 10810 10806 10802 10798 10794 10790 10787 10784 10781 10778 10774 10770 10767 10764 10760 10757 10753 10750 10746 10743 10740 10738 10735 10732 10728 10726 10724 10723 10722 10720 10718 10718 10717 10716 10715 10714 10713 10712 10713 10714 10715 10720 10723 10724 10726 10729 10731 10735 10740 10747 10751 10753 10757 10762 10768
10905 10902 10900 10898 10895 10892 10889 10886 10883 10880 10877 10874 10871 10867 10864 10861 10857 10853 10849 10846 10842 10838 10835 10831 10828 10824 10820 10816 10812 10807 10803 10798 10794 10789 10785 10780 10776 10772 10769 10766 10762 10758 10755 10752 10748 10745 10741 10737 10733 10730 10726 10722 10720 10716 10713 10710 10708 10707 10705 10703 10702 10702 10702 10702 10702 10702 10700 10699 10699 10699 10702 10706 10709 10710 10713 10715 10718 10722 10727 10732 10738 10740 10743 10748 10754
10902 10899 10897 10894 10891 10888 10885 10882 10879 10876 10873 10870 10866 10863 10859 10856 10852 10848 10844 10840 10837 10833 10829 10826 10822 10818 10814 10809 10804 10800 10795 10790 10785 10780 10775 10770 10766 10761 10757 10754 10750 10746 10742 10738 10735 10731 10727 10723 10720 10716 10712 10708 10705 10702 10699 10696 10693 10692 10690 10688 10688 10689 10689 10689 10690 10689 10688 10688 10687 10688 10690 10693 10695 10698 10700 10703 10708 10711 10714 10720 10726 10728 10730 10735 10741
10898 10895 10892 10889 10887 10884 10880 10877 10874 10871 10868 10865 10862 10858 10855 10851 10847 10843 10839 10836 10832 10829 10825 10821 10816 10812 10807 10803 10797 10792 10787 10782 10776 10770 10764 10758 10754 10749 10744 10740 10736 10732 10728 10724 10720 10716 10712 10709 10706 10702 10698 10694 10692 10689 10686 10683 10680 10678 10677 10676 10675 10676 10677 10678 10678 10678 10677 10677 10676 10677 10678 10680 10683 10686 10689 10693 10696 10698 10703 10709 10714 10716 10718 10723 10729
10893 10890 10888 10885 10882 10879 10876 10873 10870 10867 10864 10861 10858 10854 10850 10846 10842 10838 10835 10832 10828 10824 10820 10815 10811 10806 10801 10796 10791 10785 10779 10774 10768 10761 10754 10747 10741 10737 10732 10727 10723 10718 10714 10710 10707 10703 10699 10695 10692 10689 10685 10682 10679 10676 10674 10671 10669 10667 10666 10665 10665 10665 10665 10666 10667 10667 10666 10666 10666 10667 10668 10670 10672 10674 10679 10684 10685 10687 10693 10699 10701 10704 10709 10712 10716
10888 10886 10884 10881 10878 10874 10871 10869 10866 10863 10860 10857 10853 10850 10846 10842 10838 10835 10831 10828 10824 10819 10815 10810 10805 10800 10795 10789 10784 10778 10771 10765 10759 10752 10744 10737 10732 10726 10721 10716 10711 10707 10702 10697 10693 10689 10686 10683 10679 10676 10674 10671 10668 10665 10663 10661 10659 10657 10656 10655 10654 10654 10654 10655 10656 10656 10656 10657 10658 10658 10659 10661 10662 10665 10670 10674 10675 10677 10682 10687 10691 10696 10699 10701 10704
10884 10882 10880 10877 10874 10871 10868 10865 10862 10859 10856 10853 10849 10845 10842 10838 10835 10832 10828 10824 10820 10815 10810 10804 10799 10794 10788 10782 10776 10770 10763 10756 10749 10742 10734 10727 10721 10715 10709 10705 10700 10695 10690 10686 10681 10677 10674 10671 10668 10665 10663 10661 10659 10657 10654 10651 10649 10648 10646 10646 10645 10644 10644 10645 10646 10646 10646 10647 10649 10650 10651 10652 10653 10656 10660 10663 10666 10669 10671 10675 10681 10687 10689 10691 10694
10881 10879 10876 10873 10870 10868 10865 10862 10859 10856 10853 10850 10846 10843 10839 10836 10832 10829 10824 10820 10815 10810 10804 10799 10793 10788 10782 10776 10769 10761 10754 10747 10739 10732 10724 10716 10709 10703 10697 10692 10688 10684 10679 10675 10670 10667 10664 10661 10658 10655 10653 10652 10650 10648 10646 10644 10642 10640 10638 10637 10636 10636 10635 10635 10636 10637 10637 10638 10640 10642 10644 10644 10645 10647 10649 10652 10656 10659 10659 10663 10670 10675 10679 10683 10685
10878 10875 10872 10870 10867 10864 10861 10859 10856 10854 10851 10848 10844 10840 10837 10833 10829 10825 10820 10816 10811 10805 10799 10794 10788 10783 10777 10770 10762 10753 10745 10736 10729 10721 10714 10706 10699 10692 10686 10681 10676 10673 10669 10664 10660 10657 10654 10652 10649 10647 10645 10643 10642 10640 10638 10637 10635 10633 10631 10629 10628 10628 10628 10627 10628 10629 10629 10630 10631 10634 10636 10637 10637 10639 10640 10642 10647 10648 10649 10653 10659 10664 10669 10673 10677
10875 10872 10869 10866 10864 10861 10859 10856 10854 10852 10849 10846 10842 10838 10834 10830 10826 10821 10816 10811 10806 10801 10795 10789 10783 10777 10771 10763 10755 10746 10737 10729 10721 10713 10705 10697 10690 10683 10677 10672 10667 10663 10660 10656 10651 10649 10646 10644 10642 10640 10638 10636 10634 10633 10631 10629 10628 10626 10625 10623 10621 10621 10621 10622 10622 10622 10622 10623 10624 10625 10628 10629 10631 10632 10633 10635 10638 10636 10637 10642 10647 10652 10658 10663 10668
10871 10868 10866 10863 10861 10859 10857 10855 10853 10850 10846 10842 10838 10835 10831 10827 10822 10817 10812 10807 10802 10796 10790 10785 10779 10772 10764 10756 10748 10740 10732 10723 10714 10706 10698 10690 10683 10675 10669 10664 10659 10655 10652 10648 10645 10642 10640 10638 10636 10634 10632 10630 10628 10626 10625 10623 10622 10620 10619 10617 10616 10615 10615 10616 10616 10615 10615 10616 10616 10618 10620 10621 10623 10625 10626 10626 10625 10622 10625 10633 10638 10643 10649 10655 10660
10868 10866 10864 10861 10859 10857 10855 10853 10850 10847 10843 10839 10835 10832 10828 10823 10819 10814 10808 10803 10797 10792 10786 10780 10774 10767 10758 10750 10743 10735 10726 10716 10707 10699 10692 10684 10677 10669 10663 10657 10653 10648 10645 10642 10639 10637 10635 10633 10630 10628 10626 10624 10623 10621 10619 10618 10616 10615 10613 10612 10611 10611 10611 10611 10611 10610 10610 10611 10611 10611 10613 10614 10615 10617 10616 10615 10614 10615 10621 10629 10633 10638 10643 10648 10652
10867 10864 10862 10860 10858 10856 10853 10851 10847 10844 10840 10836 10832 10829 10825 10820 10815 10810 10804 10799 10793 10787 10781 10775 10767 10760 10752 10745 10737 10729 10719 10710 10701 10693 10686 10679 10672 10664 10658 10652 10648 10643 10640 10637 10635 10632 10630 10628 10626 10623 10621 10620 10618 10616 10615 10613 10612 10610 10609 10608 10607 10607 10607 10606 10606 10605 10606 10607 10607 10608 10608 10608 10608 10610 10610 10610 10611 10614 10620 10626 10630 10633 10637 10640 10644